Weather History for KSPS - November, 2012

Change the Weather History Date:

Monday, November 19, 2012

  Actual Average Record
Temperature  
Mean Temperature 64 °F 51 °F  
Max Temperature 76 °F 64 °F 87 °F (1949)
Min Temperature 52 °F 39 °F 22 °F (1937)
Degree Days  
Heating Degree Days 1 14  
Month to date heating degree days 149 199  
Since 1 July heating degree days 311 325  
Cooling Degree Days 0 0  
Month to date cooling degree days 26 10  
Year to date cooling degree days 2946 2386  
Growing Degree Days 14 (Base 50)    
Moisture  
Dew Point 50 °F    
Average Humidity 65    
Maximum Humidity 86    
Minimum Humidity 43    
Precipitation  
Precipitation T in 0.05 in 1.72 in (1963)
Month to date precipitation 0.20 1.13  
Year to date precipitation 19.21 26.78  
Sea Level Pressure  
Sea Level Pressure 30.10 in    
Wind  
Wind Speed 8 mph (South)    
Max Wind Speed 21 mph    
Max Gust Speed 24 mph    
Visibility 10 miles    
Events      
T = Trace of Precipitation, MM = Missing Value Source: NWS Daily Summary

Daily Weather History Graph

Daily Weather History Graph

Search for Another Location

Airport or City:

Trip Planner

Search our weather history database for the weather conditions in past years. The results will help you decide how hot, cold, wet, or windy it might be!

Date:

Astronomy

Nov. 19, 2012 Rise Set
Actual Time 7:10 AM CST 5:28 PM CST
Civil Twilight 6:43 AM CST 5:54 PM CST
Nautical Twilight 6:13 AM CST 6:25 PM CST
Astronomical Twilight 5:43 AM CST 6:55 PM CST
Moon 12:20 PM CST (11/19) 11:49 PM CST (11/19)
Length of Visible Light 11h 10m
Length of Day
10h 17m
Waxing Crescent, 41% of the Moon is Illuminated
Nov 19
Waxing Crescent
Nov 20
First Quarter
Nov 28
Full
Dec 6
Last Quarter
Dec 13
New

Hourly Weather History & Observations

Time (CST) Temp. Dew Point Humidity Pressure Visibility Wind Dir Wind Speed Gust Speed Precip Events Conditions
12:52 AM 61.0 °F 43.0 °F 52% 30.12 in 10.0 mi South 10.4 mph - 0.00 in   Mostly Cloudy
1:52 AM 60.1 °F 44.1 °F 55% 30.10 in 10.0 mi South 11.5 mph - N/A   Overcast
2:52 AM 59.0 °F 46.0 °F 62% 30.11 in 10.0 mi South 5.8 mph - N/A   Overcast
3:52 AM 57.0 °F 46.9 °F 69% 30.11 in 10.0 mi SSE 4.6 mph - N/A   Scattered Clouds
4:52 AM 54.0 °F 46.0 °F 75% 30.11 in 10.0 mi SE 6.9 mph - N/A   Mostly Cloudy
5:52 AM 55.9 °F 46.0 °F 69% 30.11 in 10.0 mi South 4.6 mph - N/A   Overcast
6:52 AM 54.0 °F 45.0 °F 72% 30.13 in 10.0 mi South 6.9 mph - N/A   Scattered Clouds
7:52 AM 52.0 °F 45.0 °F 77% 30.14 in 10.0 mi South 8.1 mph - N/A   Clear
8:52 AM 59.0 °F 46.9 °F 64% 30.14 in 10.0 mi South 15.0 mph - N/A   Scattered Clouds
9:52 AM 64.0 °F 50.0 °F 60% 30.14 in 10.0 mi South 17.3 mph - N/A   Scattered Clouds
10:52 AM 64.9 °F 52.0 °F 63% 30.13 in 10.0 mi South 16.1 mph - N/A   Scattered Clouds
11:52 AM 72.0 °F 53.1 °F 51% 30.10 in 10.0 mi SSW 11.5 mph - N/A   Scattered Clouds
12:52 PM 73.0 °F 53.1 °F 49% 30.08 in 10.0 mi SSW 11.5 mph - N/A   Mostly Cloudy
1:52 PM 71.1 °F 53.1 °F 53% 30.06 in 10.0 mi South 11.5 mph - N/A   Mostly Cloudy
2:52 PM 75.0 °F 53.1 °F 46% 30.04 in 10.0 mi SSW 10.4 mph - N/A   Mostly Cloudy
3:52 PM 75.9 °F 52.0 °F 43% 30.04 in 10.0 mi SSW 11.5 mph - N/A   Mostly Cloudy
4:52 PM 70.0 °F 52.0 °F 53% 30.05 in 10.0 mi South 6.9 mph - N/A   Mostly Cloudy
5:52 PM 66.9 °F 52.0 °F 59% 30.07 in 10.0 mi SSE 4.6 mph - N/A   Partly Cloudy
6:52 PM 63.0 °F 52.0 °F 67% 30.09 in 10.0 mi SSE 4.6 mph - N/A   Scattered Clouds
7:52 PM 59.0 °F 52.0 °F 78% 30.11 in 10.0 mi ESE 5.8 mph - N/A   Scattered Clouds
8:52 PM 57.9 °F 52.0 °F 81% 30.10 in 10.0 mi SSE 8.1 mph - N/A   Partly Cloudy
9:52 PM 57.0 °F 52.0 °F 83% 30.10 in 10.0 mi Calm Calm - N/A   Clear
10:52 PM 55.0 °F 51.1 °F 86% 30.10 in 10.0 mi East 3.5 mph - N/A   Clear
11:52 PM 54.0 °F 51.1 °F 90% 30.10 in 10.0 mi ESE 3.5 mph - N/A   Clear